Regional Weather Roundup
Issued by NWS

Home | Current Version | Previous Version | Graphics & Text | Print | Product List | Glossary On
Versions: 1 2 3 4 5 6 7 8 9 10 11 12 13 14 15 16 17 18 19 20 21 22 23 24 25 26 27 28 29 30 31 32 33 34 35 36 37 38 39 40 41 42 43 44 45 46 47 48 49 50
000
ASUS43 KFSD 310002
RWRSD

WEATHER ROUNDUP FOR SOUTH DAKOTA
NATIONAL WEATHER SERVICE SIOUX FALLS SD
700 PM CDT THU JUL 30 2015

NOTE: "FAIR" INDICATES FEW OR NO CLOUDS BELOW 12,000 FEET WITH NO
SIGNIFICANT WEATHER AND/OR OBSTRUCTIONS TO VISIBILITY.


SDZ001>005-009-010-012>017-310100-
NORTHWEST AND NORTH CENTRAL SOUTH DAKOTA

CITY           SKY/WX    TMP DP  RH WIND       PRES   REMARKS
BUFFALO          N/A     87  39  18 NW13      30.12F
FAITH            N/A     89  39  17 N12       30.15S
MOBRIDGE       SUNNY     86  52  30 N13       30.09S
$$

SDZ012>016-024>037-041>051-057-063-072>074-310100-
SOUTHWEST AND SOUTH CENTRAL SOUTH DAKOTA

CITY           SKY/WX    TMP DP  RH WIND       PRES   REMARKS
RAPID CTY ARPT SUNNY     85  45  24 CALM      30.21F
PIERRE         SUNNY     90  44  20 N8        30.08F
CUSTER         MOSUNNY   75  46  35 E5        30.36S
ELLSWORTH AFB  SUNNY     87  43  21 W5        30.20F
PHILIP         SUNNY     89  47  23 N7        30.14F
PINE RIDGE     SUNNY     88  44  21 NE3       30.20F
WINNER         FAIR      91  49  23 NW7       30.13F
$$

SDZ004>011-016>023-039-040-310100-
NORTHEAST SOUTH DAKOTA

CITY           SKY/WX    TMP DP  RH WIND       PRES   REMARKS
ABERDEEN       SUNNY     85  53  33 NW15      30.07F
WATERTOWN      SUNNY     83  57  41 W8        30.08F
BROOKINGS      SUNNY     82  57  42 W7        30.11F
SISSETON         N/A     81  60  48 N12       30.04S
$$

SDZ017-020-022-023-036>040-048>070-310100-
SOUTHEAST SOUTH DAKOTA

CITY           SKY/WX    TMP DP  RH WIND       PRES   REMARKS
SIOUX FALLS    MOSUNNY   84  59  42 W7        30.10F
HURON          SUNNY     87  57  35 W5        30.07F
CHAMBERLAIN    SUNNY     88  48  25 N3        30.11F
MITCHELL       SUNNY     89  61  38 N3        30.09F
YANKTON        SUNNY     88  64  45 N3        30.07F
$$

ABBREVIATIONS USED IN REMARKS
   TC - TEMPERATURE IN CELSIUS
  WCI - WIND CHILL INDEX
   HX - HEAT INDEX
  VSB - VISIBILITY




USA.gov is the U.S. government's official web portal to all federal, state and local government web resources and services.